Dewpoint
59 59 59 59 59 59 59 59 60 60 60 60 60 61 61 61 61 61 62 62 62 62 62 63 63 63 63 63 63 63 63 63 63 63 63 63 62 62 62 62 62 62 62 63 63 63 63 64 64 64 65 65 66 67 67 67 69 70 70 71 71 71 72 72 73 73 74 74 74 74 74 74 74 74 74 74 74 74 74 74 74 73 73 72 72 72 72 71 71 71 71 71 71 71 72 72 73 73 73 73 73 73 73
59 59 59 59 59 59 59 59 60 60 60 60 60 61 61 61 61 61 61 61 61 62 62 62 63 63 63 63 63 63 63 63 63 63 63 63 63 62 62 62 62 62 62 62 63 63 63 64 64 63 64 65 65 66 67 67 68 69 70 70 71 71 72 72 73 73 73 74 74 74 74 74 74 74 74 74 74 74 74 74 73 73 73 73 72 72 72 71 71 71 71 71 71 71 72 73 73 73 73 73 73 73 73
58 58 58 58 58 58 58 59 59 60 60 60 60 60 61 61 61 61 61 61 61 61 62 62 62 62 63 63 63 63 63 63 63 63 63 63 63 63 62 62 62 62 62 62 63 63 63 64 63 63 63 64 64 65 66 67 68 69 69 70 70 71 71 72 72 73 73 73 74 74 74 74 74 74 74 75 75 75 74 74 74 73 73 73 73 72 72 72 71 71 71 71 71 72 72 73 73 73 73 73 73 73 73
58 58 58 58 58 58 58 59 59 59 60 60 60 60 60 61 61 61 61 61 61 61 61 61 62 62 62 62 62 63 63 63 63 63 63 63 63 63 63 62 62 62 62 62 62 63 63 63 63 63 63 63 64 64 65 67 67 68 69 69 70 70 71 72 72 72 73 73 73 74 74 74 74 74 74 75 75 75 74 74 74 74 73 73 73 72 72 72 72 71 71 71 71 71 72 73 73 73 72 72 72 73 73
58 58 58 58 58 58 58 59 59 59 60 60 60 60 60 60 61 61 61 62 62 62 62 62 62 62 62 62 62 62 62 63 63 63 63 63 63 63 63 62 62 62 61 62 62 62 63 63 63 63 62 63 63 64 64 66 67 68 69 69 69 70 71 72 72 72 72 73 73 73 74 74 74 74 74 74 75 75 75 74 74 74 74 73 73 72 72 72 72 71 71 71 71 71 72 72 72 72 72 72 72 72 72
58 58 58 58 58 58 58 59 59 59 59 60 60 60 60 60 60 61 61 61 62 62 62 62 62 62 62 62 62 62 62 62 62 63 63 63 63 63 63 63 62 62 61 62 62 62 62 62 62 62 62 62 63 63 63 65 67 68 68 69 69 70 71 72 72 72 72 72 73 73 73 74 74 74 74 74 74 74 74 74 74 74 74 73 73 72 72 72 72 72 71 71 71 71 72 72 72 72 72 72 72 72 72
58 58 58 58 58 58 58 58 59 59 59 59 59 60 60 60 60 61 61 61 61 62 62 62 62 62 62 62 62 62 62 62 62 62 63 63 63 63 63 63 62 62 61 61 61 62 62 61 61 62 62 62 62 63 63 65 66 67 68 68 69 70 71 71 72 72 72 72 72 73 73 73 74 74 74 74 74 74 74 74 74 74 74 73 72 72 72 72 72 72 71 71 71 71 72 72 72 72 72 72 72 72 72
57 57 57 57 58 58 58 58 58 59 59 59 59 59 60 60 60 60 61 61 61 61 61 61 62 62 62 62 62 62 62 62 62 62 63 63 63 63 63 63 62 62 62 61 61 61 62 61 62 62 61 62 62 63 63 64 65 66 67 68 69 70 71 71 72 72 72 72 72 72 73 73 73 73 73 73 73 73 74 74 74 74 74 73 73 72 72 72 72 72 71 71 71 71 71 72 72 72 72 72 72 72 72
57 57 57 57 57 58 58 58 58 58 59 59 59 59 59 60 60 60 60 61 61 61 61 61 61 61 61 61 61 61 62 62 62 62 62 63 63 63 63 63 63 62 62 61 61 61 61 61 61 62 61 62 62 62 63 63 64 66 67 67 68 69 70 71 72 72 72 72 72 72 72 73 73 73 73 73 73 73 73 73 73 74 74 73 73 73 73 72 72 72 71 71 71 71 71 72 72 72 72 72 72 72 72
56 57 57 57 57 57 58 58 58 58 59 59 59 59 59 60 60 60 60 60 61 61 61 61 61 61 61 61 61 61 61 61 61 62 62 62 62 63 63 63 63 63 62 62 61 61 61 60 61 61 62 61 61 62 63 63 64 65 66 67 68 68 70 71 71 72 72 72 72 72 72 73 73 73 73 73 73 73 73 73 73 73 73 73 73 73 73 73 72 72 71 71 71 71 71 71 72 72 71 71 71 71 72
56 56 56 56 57 57 57 57 58 58 58 59 59 59 59 60 60 60 60 60 60 60 60 60 61 61 60 61 61 61 61 61 61 61 61 62 62 62 62 63 63 63 63 62 62 61 61 60 60 61 62 61 62 62 62 63 64 65 66 67 67 68 69 70 71 72 72 72 72 72 72 73 73 73 73 73 73 73 73 73 73 73 73 73 73 73 73 73 72 72 71 71 71 71 71 71 71 71 71 71 71 71 71
55 55 55 56 56 56 56 57 57 58 58 58 58 59 59 59 59 59 60 60 60 60 60 60 60 60 60 60 60 60 61 61 61 61 61 61 61 61 61 62 63 63 63 63 62 62 61 60 60 60 61 61 61 62 62 63 63 64 65 66 67 67 69 70 71 72 72 72 72 72 72 73 73 73 73 73 73 73 73 73 73 73 73 73 73 73 73 73 72 72 71 71 71 71 71 71 71 71 71 71 71 71 70
55 55 55 55 56 56 56 56 57 57 58 58 58 58 58 58 59 59 59 59 59 60 60 60 60 60 60 60 60 60 60 60 60 60 60 60 60 60 61 61 62 62 63 63 63 62 61 60 60 60 61 61 61 61 62 62 63 64 65 66 67 67 68 70 71 72 72 72 72 72 72 73 73 73 73 73 73 73 73 73 73 73 73 73 72 72 72 72 72 72 71 70 70 70 71 71 71 71 71 71 71 70 70
54 54 54 55 55 56 56 56 56 57 57 57 58 58 58 58 58 58 58 59 59 59 59 59 59 59 59 59 59 59 59 59 59 59 59 59 59 59 59 60 60 61 62 62 62 62 62 61 60 60 60 61 62 62 63 62 63 63 65 65 66 67 68 69 71 72 72 72 72 72 72 72 73 73 73 73 73 73 73 73 73 73 73 73 72 72 72 72 72 71 70 70 70 70 70 71 71 71 71 71 71 70 69
54 54 54 54 55 55 55 56 56 56 57 57 57 57 58 58 58 58 58 58 58 59 59 59 59 59 59 59 59 59 58 58 58 58 58 58 58 58 58 58 59 59 60 61 61 62 62 61 61 61 61 62 62 62 63 62 63 63 65 65 66 66 67 69 70 72 72 72 72 72 72 72 72 73 73 73 73 73 72 73 73 73 72 72 72 72 72 72 72 71 70 70 70 70 70 70 70 71 71 71 71 70 69
54 54 54 54 54 55 55 55 56 56 56 56 56 57 57 57 57 58 58 58 58 58 58 58 58 58 58 58 58 58 58 57 57 56 56 56 56 56 56 57 57 58 58 59 60 61 62 62 62 62 62 62 62 62 62 62 62 63 64 65 65 66 67 68 70 71 72 72 72 72 72 72 72 72 73 73 73 73 72 73 73 72 72 72 72 72 72 72 72 71 71 71 71 70 70 70 70 70 71 71 71 70 69
54 54 53 54 54 54 54 55 55 55 55 56 56 56 56 57 57 57 57 58 58 58 58 58 58 58 58 58 57 57 56 55 54 54 54 54 54 55 55 55 56 56 57 58 59 60 60 61 61 61 61 61 61 62 62 62 62 63 64 64 65 66 67 68 69 71 72 72 72 72 72 72 72 72 72 73 73 72 72 72 72 72 72 72 72 72 72 72 72 72 71 71 71 71 70 70 70 70 70 71 71 70 69
54 53 53 53 54 54 54 54 54 55 55 55 55 56 56 56 56 56 57 57 57 57 57 57 57 57 57 56 56 55 54 53 52 52 53 54 54 54 54 54 55 55 56 56 57 58 58 59 60 60 60 60 61 61 61 61 62 63 64 64 65 66 67 68 69 70 71 72 72 71 71 71 72 72 72 72 72 72 72 72 72 72 72 72 72 72 72 72 72 72 72 72 71 71 70 70 70 70 70 71 71 70 69
54 53 53 53 53 54 54 54 54 54 54 54 55 55 55 56 56 56 56 56 57 57 57 57 56 56 56 55 54 54 52 52 51 51 52 52 53 53 54 54 54 54 54 55 56 57 57 58 58 58 59 59 60 60 60 61 62 63 63 64 64 65 66 67 69 70 71 71 72 72 71 71 71 72 72 72 72 72 72 72 72 72 72 72 72 72 72 72 72 72 72 72 71 71 70 70 70 70 70 71 71 70 69
53 52 53 53 53 53 53 54 54 54 54 54 54 54 55 55 55 55 55 56 56 56 56 56 56 55 55 54 53 52 52 52 52 52 52 52 52 53 53 53 53 54 54 54 55 56 57 57 58 58 58 58 59 59 59 60 61 62 63 63 64 65 66 67 68 69 71 71 72 72 71 71 71 71 72 72 72 72 72 72 72 72 72 72 72 72 72 72 72 72 72 72 72 71 71 70 70 69 70 70 70 70 69
49 50 50 52 52 52 52 52 53 53 53 54 54 54 53 54 54 55 55 55 55 55 55 55 55 54 54 53 53 52 52 52 52 52 52 52 53 53 53 53 53 54 54 54 54 55 56 57 57 57 58 58 58 58 58 59 60 61 62 63 63 64 65 66 67 68 70 71 71 72 72 71 71 71 71 72 72 72 72 72 72 72 72 72 72 72 72 72 72 72 71 72 72 71 71 70 70 69 69 70 70 70 70
48 49 49 50 50 51 51 50 51 51 52 53 53 52 52 52 53 54 54 54 54 54 54 54 54 53 53 53 53 53 52 52 52 52 53 53 53 53 53 53 54 54 54 54 54 54 55 56 56 57 57 58 58 58 58 59 60 61 61 62 63 63 64 65 66 67 68 70 71 71 72 71 71 71 71 72 72 72 72 72 72 72 72 72 72 72 72 72 72 71 71 72 72 72 71 70 70 69 69 70 70 70 70
49 49 49 49 50 50 50 50 50 50 50 52 52 51 51 51 52 53 53 53 53 53 53 53 53 53 53 54 53 53 53 53 53 53 53 53 53 53 54 54 54 54 54 54 54 54 54 54 55 56 57 57 58 58 58 59 60 60 61 61 62 63 64 65 66 67 67 68 70 71 71 71 71 71 71 71 72 72 72 72 72 73 72 72 72 72 72 72 72 72 71 72 72 72 71 71 70 69 69 70 70 70 70
49 50 50 50 50 50 49 50 50 50 49 50 50 50 50 51 51 52 52 52 53 53 53 53 53 53 54 54 54 53 53 53 53 53 53 53 53 53 54 54 54 54 54 54 54 54 54 54 55 55 56 56 57 57 58 58 59 60 60 61 62 63 63 64 65 66 67 67 69 70 71 71 71 71 71 71 72 72 72 72 72 73 73 72 72 72 71 71 71 72 72 72 72 72 72 71 70 70 69 69 70 70 70
49 50 50 50 50 50 50 49 49 49 49 49 49 49 49 50 51 52 52 52 52 53 53 53 53 53 54 54 53 53 53 53 53 53 53 53 53 53 53 53 54 54 54 54 54 54 54 54 54 55 55 56 56 57 57 58 59 59 60 60 61 62 63 63 64 65 66 67 68 69 70 70 71 71 71 71 72 72 72 72 72 73 73 73 72 72 71 71 71 71 72 72 72 72 72 71 70 70 69 69 70 70 70
49 50 50 50 50 50 50 49 49 49 49 49 49 49 49 50 51 51 52 52 52 52 53 53 53 54 54 53 53 53 53 53 53 52 52 53 53 53 53 53 53 54 54 54 54 54 54 54 54 54 55 55 56 56 57 58 58 59 59 60 61 61 62 63 63 64 65 66 67 68 69 70 70 71 71 71 72 72 72 72 72 73 73 73 72 72 71 71 71 71 72 72 72 72 72 71 70 70 69 69 69 70 70
49 49 49 49 49 49 49 49 49 49 49 49 49 49 49 50 50 51 51 52 52 52 53 53 53 53 54 54 53 53 53 53 53 53 53 53 53 53 53 53 53 54 54 54 54 54 54 54 54 53 54 55 55 56 56 57 58 58 58 59 60 61 62 62 63 64 64 65 67 67 68 69 70 71 71 71 72 72 72 72 72 72 73 73 72 72 71 71 71 71 72 72 72 72 72 71 71 70 70 69 69 69 70
49 49 49 49 49 49 49 49 49 49 48 48 48 48 49 49 50 50 51 51 52 52 53 53 53 53 53 54 54 53 53 53 54 54 54 54 54 54 54 54 54 54 54 54 54 54 54 54 54 53 53 54 54 55 55 56 57 58 58 58 59 60 61 62 62 63 64 65 66 67 68 69 70 70 71 71 71 71 71 71 72 72 72 72 72 72 72 71 71 71 71 72 72 72 72 71 71 70 70 69 69 69 69
48 48 48 48 49 49 49 49 48 48 48 48 48 48 48 49 50 50 51 51 52 52 52 52 52 52 53 53 53 53 54 54 54 54 54 54 54 54 54 54 54 54 54 54 54 54 55 54 54 54 53 53 54 54 55 55 56 57 57 58 58 59 60 61 62 62 63 64 65 67 68 69 70 70 70 71 71 71 71 71 71 72 72 72 72 72 72 71 71 71 71 71 72 72 72 71 71 71 70 69 69 69 69
47 47 48 48 48 48 48 48 48 48 48 48 47 47 48 49 49 50 50 51 51 51 52 52 52 53 53 53 53 53 54 54 54 54 54 54 54 55 55 55 54 54 55 55 55 55 55 55 54 54 54 54 54 54 54 54 55 56 57 57 58 58 59 60 61 61 62 63 64 66 67 68 69 70 70 71 71 71 71 71 71 72 72 72 72 72 72 71 71 71 71 71 71 71 72 71 71 71 70 70 69 69 69
46 47 47 47 48 48 48 48 48 47 47 47 47 47 47 49 49 49 50 50 51 51 52 52 52 52 53 53 53 53 54 54 54 54 54 54 54 54 54 54 55 55 55 55 56 56 56 56 55 54 54 54 54 54 54 54 54 55 56 57 57 58 58 59 59 60 61 62 63 64 66 67 68 70 70 71 71 71 71 71 71 72 72 72 72 72 72 72 71 71 71 71 71 71 71 71 71 70 70 69 69 69 69
46 46 47 47 47 47 48 47 47 47 47 47 47 47 47 49 49 49 50 50 50 51 51 51 52 52 52 53 53 53 54 54 54 54 54 54 53 53 53 53 52 52 52 54 55 56 57 57 56 55 54 54 54 54 54 54 54 55 56 56 57 57 58 58 59 59 60 61 62 63 64 65 67 68 69 70 71 71 71 71 71 72 72 72 72 72 72 72 71 71 71 71 71 71 71 70 70 70 70 69 69 69 69
46 46 46 47 47 47 47 47 46 46 46 47 47 47 47 49 49 49 50 50 51 51 52 52 52 53 53 53 53 53 54 54 54 54 53 53 53 53 53 53 53 52 53 53 54 55 56 57 57 56 55 54 54 54 54 54 54 55 55 56 57 57 57 58 58 58 59 59 60 61 62 63 65 66 68 69 70 71 71 71 71 72 72 72 72 72 72 72 71 71 71 71 71 70 70 70 70 69 69 69 69 69 69
45 45 46 46 47 47 47 46 46 46 46 46 46 47 48 49 49 49 50 51 51 52 52 53 53 53 53 54 54 54 54 54 54 54 54 53 53 53 53 53 53 53 52 53 53 54 55 56 57 57 56 55 55 54 54 54 55 55 56 56 57 57 57 58 58 58 58 59 59 60 61 62 63 65 66 67 69 70 71 71 72 72 72 72 72 72 72 72 72 71 71 70 70 70 70 70 69 69 69 69 69 69 69
45 45 46 46 46 46 46 45 45 46 46 45 46 47 48 49 49 50 51 51 52 52 53 53 53 53 54 54 54 54 54 54 54 54 54 54 54 54 54 54 54 54 53 53 53 53 54 55 56 56 57 56 56 56 55 55 55 55 56 56 57 57 57 57 58 58 58 58 59 59 60 61 62 63 65 66 67 68 70 71 71 72 72 72 72 72 72 72 72 72 71 70 70 70 70 69 69 69 69 69 69 69 69
44 45 45 46 46 46 46 45 45 45 45 45 46 47 48 49 49 50 51 51 52 52 52 53 53 53 54 54 54 54 54 54 54 54 54 54 54 54 54 54 54 54 54 53 53 53 54 54 55 56 57 57 56 56 56 55 55 55 56 56 57 57 57 57 57 58 58 58 58 59 59 60 61 62 63 65 66 67 68 69 71 71 72 72 72 72 72 72 72 72 71 70 70 70 69 69 69 69 69 68 68 69 69
44 45 45 45 45 45 45 45 45 45 45 45 45 46 48 49 49 50 51 51 51 52 52 53 53 53 54 54 54 54 54 54 54 54 54 54 54 54 54 54 54 54 54 54 54 54 54 54 55 55 56 55 55 55 55 55 55 55 56 56 57 57 57 57 57 57 58 58 58 58 59 60 60 61 63 64 65 66 67 68 69 70 71 71 71 72 72 72 72 72 72 71 70 70 69 69 69 69 69 68 68 68 69
43 44 45 45 45 44 45 45 45 44 44 45 45 46 47 48 49 50 50 51 51 52 52 52 53 53 53 53 54 54 54 54 54 54 54 54 54 54 54 54 55 55 55 55 54 54 54 54 55 55 56 55 54 54 54 54 55 55 56 57 57 57 57 57 57 57 57 58 58 58 59 60 60 61 62 63 64 65 66 67 68 69 69 70 71 72 72 72 72 72 72 71 70 70 70 69 69 69 69 68 68 68 68
42 44 45 45 44 44 44 44 44 44 44 45 45 46 47 48 49 50 50 51 51 52 52 52 52 52 53 53 53 54 54 54 54 54 54 54 54 54 54 55 55 55 55 56 56 56 55 55 56 56 56 55 54 54 54 54 55 55 55 57 57 57 57 57 57 57 57 57 58 58 60 61 61 62 62 63 63 64 65 66 67 67 68 69 70 71 72 72 72 72 72 71 70 70 69 69 69 69 69 68 68 68 68
42 43 44 44 44 44 44 43 43 43 44 45 45 46 47 48 49 49 50 51 51 51 52 52 52 52 52 52 53 54 54 55 55 55 55 55 55 55 55 55 55 55 56 56 57 57 57 57 57 57 57 57 56 56 56 56 56 56 56 56 57 57 57 57 57 57 58 58 58 59 61 62 63 63 63 63 63 63 64 65 66 66 67 68 69 71 72 72 72 72 72 71 70 70 69 69 69 69 69 69 68 68 68
41 42 44 44 43 43 43 42 43 43 44 44 45 45 47 48 49 49 50 50 51 51 52 52 52 51 51 52 53 53 54 54 55 55 55 55 55 55 55 55 55 56 56 56 57 57 58 58 58 58 58 58 58 58 58 58 57 57 57 56 57 57 57 57 58 58 58 58 59 60 61 63 64 64 63 63 63 63 64 64 65 65 66 67 68 69 71 72 72 72 72 71 70 70 69 69 69 69 69 69 68 68 67
41 42 43 43 43 43 42 42 42 43 44 44 44 45 46 47 49 49 50 50 50 51 51 52 52 52 51 52 52 53 54 54 55 55 55 55 55 55 55 56 56 56 56 56 56 56 57 57 57 57 58 58 59 59 59 59 58 58 58 57 57 58 58 58 58 58 58 59 60 61 62 63 64 64 64 64 63 63 63 64 64 64 65 66 67 68 70 71 72 72 72 71 70 70 69 69 69 69 69 69 69 68 67
40 41 42 42 42 42 42 42 42 43 43 43 44 44 45 47 48 49 50 50 50 50 51 51 52 52 52 52 52 53 53 54 54 55 55 55 55 55 56 56 56 56 56 56 56 56 56 56 56 57 57 58 58 58 59 59 59 59 58 58 58 58 58 58 58 59 59 60 61 62 63 63 64 64 64 64 64 63 63 63 64 64 64 65 66 67 69 71 72 72 72 71 71 70 70 69 69 69 69 69 69 68 67
40 40 40 40 40 41 41 42 42 43 43 43 43 44 45 46 47 49 49 50 50 50 50 51 51 52 52 52 52 53 53 54 54 55 56 56 56 56 55 56 56 56 56 56 56 56 56 56 56 57 57 57 58 58 58 58 59 59 59 59 59 59 58 58 58 59 59 60 61 62 63 63 64 64 64 64 64 63 63 63 63 63 64 65 66 67 68 70 71 72 72 72 71 70 70 69 69 69 69 69 69 68 67
40 40 40 40 40 40 40 41 42 42 42 42 43 43 44 45 46 48 49 49 50 50 50 50 51 51 52 52 52 53 53 54 55 56 56 56 56 55 55 55 56 56 56 56 56 56 56 56 56 56 57 57 57 57 57 58 58 58 59 59 60 60 59 59 58 59 59 61 62 63 63 64 64 64 64 64 63 63 63 63 63 63 63 64 65 67 68 69 70 72 72 72 71 70 70 70 69 69 69 69 69 69 68
39 39 40 39 39 40 40 40 41 42 42 42 42 42 43 44 45 47 48 49 49 50 50 50 50 51 52 52 53 53 53 54 55 56 57 56 56 55 55 55 55 55 56 56 56 56 56 56 56 57 57 57 57 57 57 57 58 58 59 60 61 61 60 59 59 59 59 61 63 64 64 64 65 64 64 64 64 63 63 63 63 63 63 64 65 66 67 68 69 70 71 72 71 70 70 70 69 69 69 69 69 69 69
39 39 39 39 39 40 40 40 41 41 41 41 41 42 42 43 45 46 47 48 49 49 49 50 50 50 51 52 52 53 53 54 55 56 56 56 56 55 55 55 55 55 55 55 55 55 56 56 56 57 57 57 57 57 57 57 58 58 59 60 61 62 61 61 60 60 61 62 64 65 65 65 65 65 65 64 64 64 63 63 63 63 63 64 65 66 67 67 68 69 70 71 71 70 70 69 69 69 69 69 69 69 70
39 39 39 38 38 39 39 40 40 41 41 41 41 41 41 42 44 45 47 48 49 49 49 50 50 50 50 51 51 52 53 54 55 56 56 56 55 54 54 55 55 55 55 55 55 55 56 56 56 56 56 57 57 57 57 58 58 59 60 61 61 62 62 62 62 62 63 63 64 65 65 65 65 65 66 65 65 64 64 64 63 63 63 64 64 65 66 67 67 68 69 70 70 70 70 69 69 68 68 68 69 69 70
39 40 39 39 38 39 39 39 40 40 40 41 41 41 41 42 43 45 47 48 49 49 49 50 50 50 50 50 50 51 52 53 54 56 56 55 54 53 52 53 54 55 54 55 55 55 56 55 55 55 55 56 56 57 57 58 58 59 60 61 61 62 62 62 63 63 64 64 64 64 65 65 66 66 66 66 66 66 65 65 64 64 64 64 64 65 66 66 66 67 67 69 70 70 70 69 69 68 68 68 68 69 69
37 38 39 39 39 39 39 39 39 40 40 41 41 41 41 42 43 45 47 48 48 49 49 49 49 50 50 50 50 50 51 52 54 54 55 54 53 52 51 51 52 52 51 53 54 54 54 54 54 54 55 55 56 57 57 58 58 59 60 60 61 61 61 62 62 63 64 65 65 65 65 66 66 66 66 67 67 66 66 66 66 66 65 65 65 65 64 65 66 66 67 68 69 70 70 69 69 68 68 68 68 68 69
37 37 37 38 39 39 39 39 39 39 40 41 41 40 41 41 43 44 45 47 47 48 48 48 49 49 50 50 50 50 51 52 53 54 53 53 53 53 52 52 52 51 50 51 51 53 54 54 54 54 54 55 56 57 57 58 58 58 59 60 61 61 61 62 62 63 64 64 65 65 66 66 66 66 66 66 66 66 66 66 66 66 66 66 66 66 65 65 65 65 66 67 68 69 70 69 69 68 68 68 68 68 69
36 36 36 38 39 39 39 38 38 39 40 40 40 40 40 40 41 42 45 46 46 47 47 47 48 48 49 49 50 50 51 51 52 53 53 53 53 54 54 54 52 50 49 49 50 50 51 54 56 57 57 57 58 58 58 59 59 59 59 60 61 61 62 61 62 62 63 63 64 65 65 65 66 66 66 66 66 66 66 66 66 66 66 67 66 66 65 64 64 63 64 66 67 68 68 69 69 69 68 68 68 68 68
35 35 35 37 38 39 39 38 38 38 39 39 40 40 40 40 40 41 43 45 46 46 47 47 48 48 49 49 49 49 50 51 52 53 54 54 54 54 54 54 51 49 49 49 49 49 48 48 50 54 56 58 58 59 59 60 60 60 60 60 61 61 62 62 62 62 63 63 64 64 65 65 65 65 65 65 65 65 65 65 66 66 66 67 66 66 66 64 62 61 61 63 65 67 68 68 69 69 69 68 68 68 68
34 34 34 36 37 38 38 38 37 37 37 39 40 40 40 40 40 40 42 43 45 45 46 47 47 48 48 48 48 49 49 51 52 52 53 54 54 53 53 50 49 49 50 51 50 49 47 45 47 50 52 54 56 58 60 60 60 60 60 61 61 61 62 62 62 62 62 63 63 63 64 65 65 65 65 65 65 64 65 65 65 66 66 67 67 67 67 65 63 60 60 61 62 63 66 68 69 69 69 69 68 68 68
34 34 34 35 36 37 38 36 37 37 37 39 40 40 40 39 40 40 41 42 44 45 45 46 47 47 48 48 48 49 49 50 51 52 52 53 53 53 52 51 51 51 50 50 49 49 48 48 49 50 51 51 54 57 59 59 60 60 60 61 61 61 61 61 61 62 62 62 63 63 63 64 65 65 65 65 65 65 65 65 65 66 66 67 67 66 65 64 63 62 62 62 61 61 62 67 68 68 69 69 68 68 68
34 34 34 34 34 35 36 36 37 37 37 39 39 40 39 39 39 40 40 41 43 44 45 45 46 47 48 48 48 48 49 49 50 51 51 52 53 54 54 54 52 50 49 47 47 48 48 50 52 52 51 51 54 56 57 58 58 59 59 60 60 60 60 61 61 61 61 61 61 62 63 63 64 65 65 65 65 65 65 65 65 66 66 67 67 66 66 66 65 65 64 64 62 61 61 64 67 68 69 69 68 68 67
33 34 34 34 34 34 35 37 37 36 37 38 39 39 39 39 39 39 40 41 42 43 44 45 46 47 48 49 49 49 49 49 49 50 51 51 53 54 54 54 53 53 51 51 50 50 50 53 52 51 51 51 52 53 54 55 56 58 58 58 58 59 59 60 60 60 60 59 60 61 61 63 64 64 64 65 65 65 65 65 65 66 66 66 67 67 67 67 66 66 65 65 64 63 61 63 66 67 69 69 69 68 67
33 34 34 34 33 33 34 36 37 37 37 39 39 38 38 38 39 39 39 40 41 42 44 45 46 47 48 49 49 49 48 48 49 49 50 51 52 53 53 54 54 55 55 55 54 54 53 53 52 52 52 52 52 51 52 53 54 56 57 57 58 58 58 58 58 58 58 59 59 60 61 63 63 64 64 64 65 65 65 65 65 66 66 66 66 67 67 66 66 65 66 65 64 63 62 64 66 67 69 69 69 69 68
32 33 34 34 33 33 33 34 36 36 37 38 38 37 37 38 38 38 39 40 41 42 43 45 45 47 48 48 48 48 48 48 48 49 49 49 50 51 52 52 53 54 56 57 57 56 55 53 53 53 53 51 51 51 52 53 54 55 55 55 56 57 56 56 57 57 58 58 59 60 61 63 63 64 64 64 64 64 64 65 65 66 66 66 66 66 66 64 64 64 63 63 62 63 63 63 65 67 68 69 69 69 68
33 34 35 34 33 33 33 34 35 36 37 38 37 37 37 37 38 38 39 40 41 42 43 44 45 46 47 47 47 48 47 48 48 49 49 48 49 50 51 51 52 53 54 55 56 57 56 55 54 54 53 51 51 51 52 52 53 54 54 54 55 56 57 58 58 58 58 58 59 60 61 62 63 64 64 65 64 64 64 64 65 65 66 66 66 66 66 66 65 64 63 63 63 63 63 63 64 66 68 69 69 69 69
33 35 36 35 34 33 32 34 35 36 37 38 37 36 37 37 38 38 38 39 40 41 42 43 44 45 45 46 47 47 47 48 48 48 48 48 48 49 50 50 51 52 53 54 54 55 56 56 56 55 54 53 52 52 52 52 52 53 54 54 55 57 59 59 60 60 60 60 61 61 62 63 63 64 64 65 65 65 64 64 65 65 66 66 66 66 66 66 66 66 65 64 63 63 62 63 64 65 67 68 69 69 69